Location: Burland Observatory
(39.4088°N, 105.4217°W)
Time: 21:32:48
(UTC-07:00)

SR - Pass Details

Date: 11 December 2019
Orbit: 574 x 882 km, 66.7° (Epoch: 22 January)

Event Time Altitude Azimuth Distance (km) Brightness Sun altitude
Rises 08:45:00 0° 198° (SSW) 3,191 ? 13.4°
Reaches altitude 10° 08:47:18 10° 196° (SSW) 2,315 ? 13.8°
Maximum altitude 08:52:37 65° 115° (ESE) 897 ? 14.5°
Drops below altitude 10° 08:58:20 10° 34° (NE) 2,496 ? 15.2°
Sets 09:00:54 0° 32° (NNE) 3,459 ? 15.5°
